Year,Month,Day,Hour,Minute,Value (Times are PST for temperature in C)
2013,06,19,00,00,10.80
2013,06,19,00,01,10.80
2013,06,19,00,02,10.80
2013,06,19,00,03,10.80
2013,06,19,00,04,10.70
2013,06,19,00,05,10.70
2013,06,19,00,06,10.70
2013,06,19,00,07,10.60
2013,06,19,00,08,10.60
2013,06,19,00,09,10.60
2013,06,19,00,10,10.60
2013,06,19,00,11,10.60
2013,06,19,00,12,10.60
2013,06,19,00,13,10.60
2013,06,19,00,14,10.50
2013,06,19,00,15,10.50
2013,06,19,00,16,10.50
2013,06,19,00,17,10.50
2013,06,19,00,18,10.50
2013,06,19,00,19,10.50
2013,06,19,00,20,10.50
2013,06,19,00,21,10.50
2013,06,19,00,22,10.60
2013,06,19,00,23,10.60
2013,06,19,00,24,10.60
2013,06,19,00,25,10.60
2013,06,19,00,26,10.60
2013,06,19,00,27,10.60
2013,06,19,00,28,10.60
2013,06,19,00,29,10.50
2013,06,19,00,30,10.50
2013,06,19,00,31,10.50
2013,06,19,00,32,10.40
2013,06,19,00,33,10.40
2013,06,19,00,34,10.40
2013,06,19,00,35,10.40
2013,06,19,00,36,10.40
2013,06,19,00,37,10.40
2013,06,19,00,38,10.40
2013,06,19,00,39,10.40
2013,06,19,00,40,10.40
2013,06,19,00,41,10.40
2013,06,19,00,42,10.40
2013,06,19,00,43,10.40
2013,06,19,00,44,10.40
2013,06,19,00,45,10.30
2013,06,19,00,46,10.30
2013,06,19,00,47,10.30
2013,06,19,00,48,10.30
2013,06,19,00,49,10.30
2013,06,19,00,50,10.20
2013,06,19,00,51,10.20
2013,06,19,00,52,10.20
2013,06,19,00,53,10.20
2013,06,19,00,54,10.20
2013,06,19,00,55,10.20
2013,06,19,00,56,10.20
2013,06,19,00,57,10.20
2013,06,19,00,58,10.20
2013,06,19,00,59,10.20
2013,06,19,01,00,10.20
2013,06,19,01,01,10.20
2013,06,19,01,02,10.20
2013,06,19,01,03,10.20
2013,06,19,01,04,10.20
2013,06,19,01,05,10.10
2013,06,19,01,06,10.10
2013,06,19,01,07,10.10
2013,06,19,01,08,10.10
2013,06,19,01,09,10.10
2013,06,19,01,10,10.10
2013,06,19,01,11,10.10
2013,06,19,01,12,10.10
2013,06,19,01,13,10.10
2013,06,19,01,14,10.10
2013,06,19,01,15,10.10
2013,06,19,01,16,10.10
2013,06,19,01,17,10.10
2013,06,19,01,18,10.10
2013,06,19,01,19,10.10
2013,06,19,01,20,10.10
2013,06,19,01,21,10.10
2013,06,19,01,22,10.10
2013,06,19,01,23,10.10
2013,06,19,01,24,10.10
2013,06,19,01,25,10.10
2013,06,19,01,26,10.10
2013,06,19,01,27,10.10
2013,06,19,01,28,10.10
2013,06,19,01,29,10.10
2013,06,19,01,30,10.00
2013,06,19,01,31,10.00
2013,06,19,01,32,9.90
2013,06,19,01,33,9.90
2013,06,19,01,34,9.90
2013,06,19,01,35,9.90
2013,06,19,01,36,9.90
2013,06,19,01,37,9.90
2013,06,19,01,38,9.90
2013,06,19,01,39,9.90
2013,06,19,01,40,9.90
2013,06,19,01,41,9.90
2013,06,19,01,42,9.90
2013,06,19,01,43,9.90
2013,06,19,01,44,9.80
2013,06,19,01,45,9.80
2013,06,19,01,46,9.80
2013,06,19,01,47,9.80
2013,06,19,01,48,9.80
2013,06,19,01,49,9.70
2013,06,19,01,50,9.70
2013,06,19,01,51,9.70
2013,06,19,01,52,9.70
2013,06,19,01,53,9.70
2013,06,19,01,54,9.70
2013,06,19,01,55,9.70
2013,06,19,01,56,9.70
2013,06,19,01,57,9.70
2013,06,19,01,58,9.70
2013,06,19,01,59,9.70
2013,06,19,02,00,9.70
2013,06,19,02,01,9.70
2013,06,19,02,02,9.70
2013,06,19,02,03,9.80
2013,06,19,02,04,9.80
2013,06,19,02,05,9.80
2013,06,19,02,06,9.80
2013,06,19,02,07,9.80
2013,06,19,02,08,9.80
2013,06,19,02,09,9.80
2013,06,19,02,10,9.80
2013,06,19,02,11,9.80
2013,06,19,02,12,9.80
2013,06,19,02,13,9.80
2013,06,19,02,14,9.80
2013,06,19,02,15,9.80
2013,06,19,02,16,9.80
2013,06,19,02,17,9.80
2013,06,19,02,18,9.80
2013,06,19,02,19,9.70
2013,06,19,02,20,9.70
2013,06,19,02,21,9.70
2013,06,19,02,22,9.70
2013,06,19,02,23,9.60
2013,06,19,02,24,9.60
2013,06,19,02,25,9.60
2013,06,19,02,26,9.60
2013,06,19,02,27,9.60
2013,06,19,02,28,9.60
2013,06,19,02,29,9.60
2013,06,19,02,30,9.60
2013,06,19,02,31,9.60
2013,06,19,02,32,9.60
2013,06,19,02,33,9.60
2013,06,19,02,34,9.50
2013,06,19,02,35,9.50
2013,06,19,02,36,9.40
2013,06,19,02,37,9.40
2013,06,19,02,38,9.40
2013,06,19,02,39,9.40
2013,06,19,02,40,9.40
2013,06,19,02,41,9.40
2013,06,19,02,42,9.40
2013,06,19,02,43,9.40
2013,06,19,02,44,9.40
2013,06,19,02,45,9.50
2013,06,19,02,46,9.50
2013,06,19,02,47,9.60
2013,06,19,02,48,9.60
2013,06,19,02,49,9.70
2013,06,19,02,50,9.70
2013,06,19,02,51,9.70
2013,06,19,02,52,9.70
2013,06,19,02,53,9.70
2013,06,19,02,54,9.80
2013,06,19,02,55,9.80
2013,06,19,02,56,9.80
2013,06,19,02,57,9.80
2013,06,19,02,58,9.70
2013,06,19,02,59,9.70
2013,06,19,03,00,9.60
2013,06,19,03,01,9.50
2013,06,19,03,02,9.50
2013,06,19,03,03,9.40
2013,06,19,03,04,9.40
2013,06,19,03,05,9.30
2013,06,19,03,06,9.30
2013,06,19,03,07,9.40
2013,06,19,03,08,9.40
2013,06,19,03,09,9.40
2013,06,19,03,10,9.50
2013,06,19,03,11,9.50
2013,06,19,03,12,9.50
2013,06,19,03,13,9.50
2013,06,19,03,14,9.50
2013,06,19,03,15,9.60
2013,06,19,03,16,9.80
2013,06,19,03,17,9.80
2013,06,19,03,18,9.80
2013,06,19,03,19,9.80
2013,06,19,03,20,9.80
2013,06,19,03,21,9.80
2013,06,19,03,22,9.80
2013,06,19,03,23,9.80
2013,06,19,03,24,9.80
2013,06,19,03,25,9.70
2013,06,19,03,26,9.70
2013,06,19,03,27,9.70
2013,06,19,03,28,9.60
2013,06,19,03,29,9.60
2013,06,19,03,30,9.60
2013,06,19,03,31,9.50
2013,06,19,03,32,9.50
2013,06,19,03,33,9.40
2013,06,19,03,34,9.40
2013,06,19,03,35,9.40
2013,06,19,03,36,9.30
2013,06,19,03,37,9.30
2013,06,19,03,38,9.30
2013,06,19,03,39,9.30
2013,06,19,03,40,9.30
2013,06,19,03,41,9.30
2013,06,19,03,42,9.30
2013,06,19,03,43,9.30
2013,06,19,03,44,9.30
2013,06,19,03,45,9.30
2013,06,19,03,46,9.40
2013,06,19,03,47,9.40
2013,06,19,03,48,9.40
2013,06,19,03,49,9.40
2013,06,19,03,50,9.40
2013,06,19,03,51,9.40
2013,06,19,03,52,9.40
2013,06,19,03,53,9.50
2013,06,19,03,54,9.50
2013,06,19,03,55,9.60
2013,06,19,03,56,9.60
2013,06,19,03,57,9.60
2013,06,19,03,58,9.70
2013,06,19,03,59,9.70
2013,06,19,04,00,9.70
2013,06,19,04,01,9.70
2013,06,19,04,02,9.60
2013,06,19,04,03,9.60
2013,06,19,04,04,9.50
2013,06,19,04,05,9.40
2013,06,19,04,06,9.30
2013,06,19,04,07,9.30
2013,06,19,04,08,9.30
2013,06,19,04,09,9.30
2013,06,19,04,10,9.30
2013,06,19,04,11,9.30
2013,06,19,04,12,9.30
2013,06,19,04,13,9.20
2013,06,19,04,14,9.20
2013,06,19,04,15,9.20
2013,06,19,04,16,9.10
2013,06,19,04,17,9.10
2013,06,19,04,18,9.00
2013,06,19,04,19,9.00
2013,06,19,04,20,8.90
2013,06,19,04,21,8.90
2013,06,19,04,22,8.90
2013,06,19,04,23,8.90
2013,06,19,04,24,8.80
2013,06,19,04,25,8.80
2013,06,19,04,26,8.80
2013,06,19,04,27,8.80
2013,06,19,04,28,8.80
2013,06,19,04,29,8.80
2013,06,19,04,30,8.80
2013,06,19,04,31,8.80
2013,06,19,04,32,8.90
2013,06,19,04,33,8.90
2013,06,19,04,34,9.00
2013,06,19,04,35,9.10
2013,06,19,04,36,9.10
2013,06,19,04,37,9.10
2013,06,19,04,38,9.20
2013,06,19,04,39,9.20
2013,06,19,04,40,9.20
2013,06,19,04,41,9.10
2013,06,19,04,42,9.10
2013,06,19,04,43,9.00
2013,06,19,04,44,9.00
2013,06,19,04,45,8.90
2013,06,19,04,46,8.90
2013,06,19,04,47,8.90
2013,06,19,04,48,8.90
2013,06,19,04,49,8.90
2013,06,19,04,50,8.90
2013,06,19,04,51,8.90
2013,06,19,04,52,8.90
2013,06,19,04,53,8.90
2013,06,19,04,54,8.90
2013,06,19,04,55,8.90
2013,06,19,04,56,8.90
2013,06,19,04,57,8.90
2013,06,19,04,58,8.90
2013,06,19,04,59,8.90
2013,06,19,05,00,8.90
2013,06,19,05,01,8.90
2013,06,19,05,02,8.90
2013,06,19,05,03,8.90
2013,06,19,05,04,8.90
2013,06,19,05,05,8.90
2013,06,19,05,06,8.90
2013,06,19,05,07,8.90
2013,06,19,05,08,8.90
2013,06,19,05,09,8.80
2013,06,19,05,10,8.80
2013,06,19,05,11,8.80
2013,06,19,05,12,8.80
2013,06,19,05,13,8.80
2013,06,19,05,14,8.80
2013,06,19,05,15,8.80
2013,06,19,05,16,8.80
2013,06,19,05,17,8.80
2013,06,19,05,18,8.80
2013,06,19,05,19,8.70
2013,06,19,05,20,8.70
2013,06,19,05,21,8.80
2013,06,19,05,22,8.80
2013,06,19,05,23,8.80
2013,06,19,05,24,8.80
2013,06,19,05,25,8.80
2013,06,19,05,26,8.80
2013,06,19,05,27,8.90
2013,06,19,05,28,8.90
2013,06,19,05,29,8.90
2013,06,19,05,30,8.90
2013,06,19,09,49,15.40
2013,06,19,09,50,15.40
2013,06,19,09,51,15.40
2013,06,19,09,52,15.40
2013,06,19,09,53,15.40
2013,06,19,09,54,15.40
2013,06,19,09,55,15.40
2013,06,19,09,56,15.50
2013,06,19,09,57,15.50
2013,06,19,09,58,15.60
2013,06,19,09,59,15.70
2013,06,19,10,00,15.70
2013,06,19,10,01,15.70
2013,06,19,10,02,15.70
2013,06,19,10,03,15.70
2013,06,19,10,04,15.70
2013,06,19,10,05,15.70
2013,06,19,10,06,15.70
2013,06,19,10,07,15.70
2013,06,19,10,08,15.80
2013,06,19,10,09,15.80
2013,06,19,10,10,15.90
2013,06,19,10,11,16.00
2013,06,19,10,12,16.00
2013,06,19,10,13,16.10
2013,06,19,10,14,16.10
2013,06,19,10,15,16.10
2013,06,19,10,16,16.10
2013,06,19,10,17,16.20
2013,06,19,10,18,16.20
2013,06,19,10,19,16.30
2013,06,19,10,20,16.30
2013,06,19,10,21,16.40
2013,06,19,10,22,16.40
2013,06,19,10,23,16.40
2013,06,19,10,24,16.40
2013,06,19,10,25,16.40
2013,06,19,10,26,16.40
2013,06,19,10,27,16.30
2013,06,19,10,28,16.30
2013,06,19,10,29,16.20
2013,06,19,10,30,16.20
2013,06,19,10,31,16.10
2013,06,19,10,32,16.10
2013,06,19,10,33,16.10
2013,06,19,10,34,16.10
2013,06,19,10,35,16.10
2013,06,19,10,36,16.20
2013,06,19,10,37,16.20
2013,06,19,10,38,16.30
2013,06,19,10,39,16.30
2013,06,19,10,40,16.30
2013,06,19,10,41,16.30
2013,06,19,10,42,16.30
2013,06,19,10,43,16.30
2013,06,19,10,44,16.30
2013,06,19,10,45,16.30
2013,06,19,10,46,16.30
2013,06,19,10,47,16.30
2013,06,19,10,48,16.20
2013,06,19,10,49,16.20
2013,06,19,10,50,16.20
2013,06,19,10,51,16.10
2013,06,19,10,52,16.10
2013,06,19,10,53,16.00
2013,06,19,10,54,16.00
2013,06,19,10,55,15.90
2013,06,19,10,56,15.80
2013,06,19,10,57,15.80
2013,06,19,10,58,15.80
2013,06,19,10,59,15.80
2013,06,19,11,00,15.80
2013,06,19,11,01,15.80
2013,06,19,11,02,15.70
2013,06,19,11,03,15.60
2013,06,19,11,04,15.50
2013,06,19,11,05,15.40
2013,06,19,11,06,15.40
2013,06,19,11,07,15.30
2013,06,19,11,08,15.30
2013,06,19,11,09,15.30
2013,06,19,11,10,15.40
2013,06,19,11,11,15.40
2013,06,19,11,12,15.40
2013,06,19,11,13,15.40
2013,06,19,11,14,15.40
2013,06,19,11,15,15.40
2013,06,19,11,16,15.40
2013,06,19,11,17,15.50
2013,06,19,11,18,15.60
2013,06,19,11,19,15.60
2013,06,19,11,20,15.70
2013,06,19,11,21,15.70
2013,06,19,11,22,15.70
2013,06,19,11,23,15.80
2013,06,19,11,24,15.80
2013,06,19,11,25,15.80
2013,06,19,11,26,15.80
2013,06,19,11,27,15.70
2013,06,19,11,28,15.70
2013,06,19,11,29,15.70
2013,06,19,11,30,15.70
2013,06,19,11,31,15.70
2013,06,19,11,32,15.80
2013,06,19,11,33,15.80
2013,06,19,11,34,15.90
2013,06,19,11,35,15.90
2013,06,19,11,36,15.90
2013,06,19,11,37,16.00
2013,06,19,11,38,16.00
2013,06,19,11,39,16.00
2013,06,19,11,40,16.00
2013,06,19,11,41,16.10
2013,06,19,11,42,16.10
2013,06,19,11,43,16.20
2013,06,19,11,44,16.30
2013,06,19,11,45,16.30
2013,06,19,11,46,16.40
2013,06,19,11,47,16.50
2013,06,19,11,48,16.50
2013,06,19,11,49,16.50
2013,06,19,11,50,16.50
2013,06,19,11,51,16.50
2013,06,19,11,52,16.50
2013,06,19,11,53,16.50
2013,06,19,11,54,16.40
2013,06,19,11,55,16.50
2013,06,19,11,56,16.50
2013,06,19,11,57,16.60
2013,06,19,11,58,16.70
2013,06,19,11,59,16.70
2013,06,19,12,00,16.70
2013,06,19,12,01,16.70
2013,06,19,12,02,16.70
2013,06,19,12,03,16.70
2013,06,19,12,04,16.70
2013,06,19,12,05,16.80
2013,06,19,12,06,16.80
2013,06,19,12,07,16.80
2013,06,19,12,08,16.80
2013,06,19,12,09,16.90
2013,06,19,12,10,17.00
2013,06,19,12,11,17.10
2013,06,19,12,12,17.20
2013,06,19,12,13,17.10
2013,06,19,12,14,17.00
2013,06,19,12,15,16.90
2013,06,19,12,16,16.80
2013,06,19,12,17,16.70
2013,06,19,12,18,16.70
2013,06,19,12,19,16.70
2013,06,19,12,20,16.80
2013,06,19,12,21,16.80
2013,06,19,12,22,16.80
2013,06,19,12,23,16.70
2013,06,19,12,24,16.70
2013,06,19,12,25,16.60
2013,06,19,12,26,16.50
2013,06,19,12,27,16.50
2013,06,19,12,28,16.50
2013,06,19,12,29,16.60
2013,06,19,12,30,16.60
2013,06,19,12,31,16.60
2013,06,19,12,32,16.60
2013,06,19,12,33,16.60
2013,06,19,12,34,16.50
2013,06,19,12,35,16.50
2013,06,19,12,36,16.50
2013,06,19,12,37,16.50
2013,06,19,12,38,16.50
2013,06,19,12,39,16.60
2013,06,19,12,40,16.60
2013,06,19,12,41,16.50
2013,06,19,12,42,16.50
2013,06,19,12,43,16.50
2013,06,19,12,44,16.50
2013,06,19,12,45,16.50
2013,06,19,12,46,16.50
2013,06,19,12,47,16.40
2013,06,19,12,48,16.40
2013,06,19,12,49,16.40
2013,06,19,12,50,16.50
2013,06,19,12,51,16.60
2013,06,19,12,52,16.60
2013,06,19,12,53,16.60
2013,06,19,12,54,16.60
2013,06,19,12,55,16.50
2013,06,19,12,56,16.50
2013,06,19,12,57,16.40
2013,06,19,12,58,16.40
2013,06,19,12,59,16.30
2013,06,19,13,00,16.30
2013,06,19,13,01,16.30
2013,06,19,13,02,16.20
2013,06,19,13,03,16.20
2013,06,19,13,04,16.20
2013,06,19,13,05,16.20
2013,06,19,13,06,16.20
2013,06,19,13,07,16.30
2013,06,19,13,08,16.30
2013,06,19,13,09,16.40
2013,06,19,13,10,16.50
2013,06,19,13,11,16.60
2013,06,19,13,12,16.70
2013,06,19,13,13,16.80
2013,06,19,13,14,16.80
2013,06,19,13,15,16.80
2013,06,19,13,16,16.90
2013,06,19,13,17,16.90
2013,06,19,13,18,17.00
2013,06,19,13,19,17.00
2013,06,19,13,20,17.00
2013,06,19,13,21,17.10
2013,06,19,13,22,17.10
2013,06,19,13,23,17.10
2013,06,19,13,24,17.10
2013,06,19,13,25,17.10
2013,06,19,13,26,17.10
2013,06,19,13,27,17.10
2013,06,19,13,28,17.20
2013,06,19,13,29,17.30
2013,06,19,13,30,17.40
2013,06,19,13,31,17.40
2013,06,19,13,32,17.40
2013,06,19,13,33,17.40
2013,06,19,13,34,17.40
2013,06,19,13,35,17.40
2013,06,19,13,36,17.40
2013,06,19,13,37,17.40
2013,06,19,13,38,17.50
2013,06,19,13,39,17.60
2013,06,19,13,40,17.60
2013,06,19,13,41,17.50
2013,06,19,13,42,17.40
2013,06,19,13,43,17.40
2013,06,19,13,44,17.40
2013,06,19,13,45,17.50
2013,06,19,13,46,17.60
2013,06,19,13,47,17.60
2013,06,19,13,48,17.60
2013,06,19,13,49,17.60
2013,06,19,13,50,17.60
2013,06,19,13,51,17.50
2013,06,19,13,52,17.40
2013,06,19,13,53,17.40
2013,06,19,13,54,17.40
2013,06,19,13,55,17.40
2013,06,19,13,56,17.40
2013,06,19,13,57,17.30
2013,06,19,13,58,17.30
2013,06,19,13,59,17.30
2013,06,19,14,00,17.30
2013,06,19,14,01,17.30
2013,06,19,14,02,17.30
2013,06,19,14,03,17.20
2013,06,19,14,04,17.20
2013,06,19,14,05,17.20
2013,06,19,14,06,17.20
2013,06,19,14,07,17.20
2013,06,19,14,08,17.20
2013,06,19,14,09,17.40
2013,06,19,14,10,17.50
2013,06,19,14,11,17.50
2013,06,19,14,12,17.60
2013,06,19,14,13,17.60
2013,06,19,14,14,17.60
2013,06,19,14,15,17.50
2013,06,19,14,16,17.40
2013,06,19,14,17,17.30
2013,06,19,14,18,17.40
2013,06,19,14,19,17.40
2013,06,19,14,20,17.50
2013,06,19,14,21,17.50
2013,06,19,14,22,17.70
2013,06,19,14,23,17.70
2013,06,19,14,24,17.80
2013,06,19,14,25,17.90
2013,06,19,14,26,18.10
2013,06,19,14,27,18.20
2013,06,19,14,28,18.20
2013,06,19,14,29,18.30
2013,06,19,14,30,18.30
2013,06,19,14,31,18.40
2013,06,19,14,32,18.40
2013,06,19,14,33,18.40
2013,06,19,14,34,18.50
2013,06,19,14,35,18.50
2013,06,19,14,36,18.60
2013,06,19,14,37,18.50
2013,06,19,14,38,18.40
2013,06,19,14,39,18.40
2013,06,19,14,40,18.40
2013,06,19,14,41,18.30
2013,06,19,14,42,18.30
2013,06,19,14,43,18.30
2013,06,19,14,44,18.20
2013,06,19,14,45,18.20
2013,06,19,14,46,18.10
2013,06,19,14,47,18.20
2013,06,19,14,48,18.20
2013,06,19,14,49,18.20
2013,06,19,14,50,18.30
2013,06,19,14,51,18.30
2013,06,19,14,52,18.30
2013,06,19,14,53,18.30
2013,06,19,14,54,18.30
2013,06,19,14,55,18.40
2013,06,19,14,56,18.50
2013,06,19,14,57,18.60
2013,06,19,14,58,18.60
2013,06,19,14,59,18.70
2013,06,19,15,00,18.80
2013,06,19,15,01,18.80
2013,06,19,15,02,18.80
2013,06,19,15,03,18.60
2013,06,19,15,04,18.50
2013,06,19,15,05,18.50
2013,06,19,15,06,18.40
2013,06,19,15,07,18.50
2013,06,19,15,08,18.60
2013,06,19,15,09,18.60
2013,06,19,15,10,18.60
2013,06,19,15,11,18.70
2013,06,19,15,12,18.80
2013,06,19,15,13,18.90
2013,06,19,15,14,19.00
2013,06,19,15,15,19.10
2013,06,19,15,16,19.30
2013,06,19,15,17,19.40
2013,06,19,15,18,19.50
2013,06,19,15,19,19.60
2013,06,19,15,20,19.70
2013,06,19,15,21,19.70
2013,06,19,15,22,19.70
2013,06,19,15,23,19.80
2013,06,19,15,24,19.70
2013,06,19,15,25,19.70
2013,06,19,15,26,19.60
2013,06,19,15,27,19.40
2013,06,19,15,28,19.20
2013,06,19,15,29,19.10
2013,06,19,15,30,19.00
2013,06,19,15,31,19.00
2013,06,19,15,32,18.90
2013,06,19,15,33,18.80
2013,06,19,15,34,18.70
2013,06,19,15,35,18.60
2013,06,19,15,36,18.50
2013,06,19,15,37,18.50
2013,06,19,15,38,18.60
2013,06,19,15,39,18.60
2013,06,19,15,40,18.70
2013,06,19,15,41,18.70
2013,06,19,15,42,18.80
2013,06,19,15,43,18.90
2013,06,19,15,44,18.90
2013,06,19,15,45,18.90
2013,06,19,15,46,18.90
2013,06,19,15,47,18.90
2013,06,19,15,48,18.90
2013,06,19,15,49,18.90
2013,06,19,15,50,18.80
2013,06,19,15,51,18.80
2013,06,19,15,52,18.80
2013,06,19,15,53,18.70
2013,06,19,15,54,18.70
2013,06,19,15,55,18.60
2013,06,19,15,56,18.60
2013,06,19,15,57,18.60
2013,06,19,15,58,18.50
2013,06,19,15,59,18.60
2013,06,19,16,00,18.50
2013,06,19,16,01,18.50
2013,06,19,16,02,18.60
2013,06,19,16,03,18.70
2013,06,19,16,04,18.70
2013,06,19,16,05,18.80
2013,06,19,16,06,18.80
2013,06,19,16,07,18.70
2013,06,19,16,08,18.50
2013,06,19,16,09,18.40
2013,06,19,16,10,18.30
2013,06,19,16,11,18.10
2013,06,19,16,12,18.00
2013,06,19,16,13,17.90
2013,06,19,16,14,17.80
2013,06,19,16,15,17.80
2013,06,19,16,16,17.80
2013,06,19,16,17,17.90
2013,06,19,16,18,17.90
2013,06,19,16,19,18.00
2013,06,19,16,20,18.10
2013,06,19,16,21,18.10
2013,06,19,16,22,18.20
2013,06,19,16,23,18.20
2013,06,19,16,24,18.20
2013,06,19,16,25,18.20
2013,06,19,16,26,18.20
2013,06,19,16,27,18.30
2013,06,19,16,28,18.40
2013,06,19,16,29,18.50
2013,06,19,16,30,18.60
2013,06,19,16,31,18.50
2013,06,19,16,32,18.40
2013,06,19,16,33,18.40
2013,06,19,16,34,18.40
2013,06,19,16,35,18.40
2013,06,19,16,36,18.50
2013,06,19,16,37,18.50
2013,06,19,16,38,18.70
2013,06,19,16,39,18.80
2013,06,19,16,40,18.80
2013,06,19,16,41,18.90
2013,06,19,16,42,18.90
2013,06,19,16,43,18.80
2013,06,19,16,44,18.80
2013,06,19,16,45,18.80
2013,06,19,16,46,18.80
2013,06,19,16,47,18.70
2013,06,19,16,48,18.70
2013,06,19,16,49,18.70
2013,06,19,16,50,18.70
2013,06,19,16,51,18.70
2013,06,19,16,52,18.60
2013,06,19,16,53,18.60
2013,06,19,16,54,18.60
2013,06,19,16,55,18.60
2013,06,19,16,56,18.60
2013,06,19,16,57,18.60
2013,06,19,16,58,18.70
2013,06,19,16,59,18.70
2013,06,19,17,00,18.80
2013,06,19,17,01,18.80
2013,06,19,17,02,18.80
2013,06,19,17,03,18.90
2013,06,19,17,04,18.90
2013,06,19,17,05,18.90
2013,06,19,17,06,18.90
2013,06,19,17,07,18.90
2013,06,19,17,08,18.80
2013,06,19,17,09,18.80
2013,06,19,17,10,18.80
2013,06,19,17,11,18.80
2013,06,19,17,12,18.80
2013,06,19,17,13,18.80
2013,06,19,17,14,18.70
2013,06,19,17,15,18.60
2013,06,19,17,16,18.50
2013,06,19,17,17,18.40
2013,06,19,17,18,18.30
2013,06,19,17,19,18.20
2013,06,19,17,20,18.20
2013,06,19,17,21,18.20
2013,06,19,17,22,18.10
2013,06,19,17,23,18.10
2013,06,19,17,24,18.00
2013,06,19,17,25,18.00
2013,06,19,17,26,17.90
2013,06,19,17,27,17.80
2013,06,19,17,28,17.70
2013,06,19,17,29,17.60
2013,06,19,17,30,17.40
2013,06,19,17,31,17.30
2013,06,19,17,32,17.30
2013,06,19,17,33,17.30
2013,06,19,17,34,17.20
2013,06,19,17,35,17.20
2013,06,19,17,36,17.20
2013,06,19,17,37,17.20
2013,06,19,17,38,17.10
2013,06,19,17,39,17.10
2013,06,19,17,40,17.20
2013,06,19,17,41,17.20
2013,06,19,17,42,17.30
2013,06,19,17,43,17.30
2013,06,19,17,44,17.40
2013,06,19,17,45,17.40
2013,06,19,17,46,17.50
2013,06,19,17,47,17.60
2013,06,19,17,48,17.80
2013,06,19,17,49,18.10
2013,06,19,17,50,18.20
2013,06,19,17,51,18.40
2013,06,19,17,52,18.60
2013,06,19,17,53,18.70
2013,06,19,17,54,18.90
2013,06,19,17,55,19.00
2013,06,19,17,56,19.10
2013,06,19,17,57,19.20
2013,06,19,17,58,19.20
2013,06,19,17,59,19.20
2013,06,19,18,00,19.30
2013,06,19,18,01,19.30
2013,06,19,18,02,19.30
2013,06,19,18,03,19.30
2013,06,19,18,04,19.30
2013,06,19,18,05,19.30
2013,06,19,18,06,19.30
2013,06,19,18,07,19.30
2013,06,19,18,08,19.30
2013,06,19,18,09,19.30
2013,06,19,18,10,19.30
2013,06,19,18,11,19.20
2013,06,19,18,12,19.20
2013,06,19,18,13,19.20
2013,06,19,18,14,19.20
2013,06,19,18,15,19.10
2013,06,19,18,16,19.10
2013,06,19,18,17,19.10
2013,06,19,18,18,19.10
2013,06,19,18,19,19.00
2013,06,19,18,20,19.00
2013,06,19,18,21,18.90
2013,06,19,18,22,18.80
2013,06,19,18,23,18.70
2013,06,19,18,24,18.60
2013,06,19,18,25,18.60
2013,06,19,18,26,18.50
2013,06,19,18,27,18.50
2013,06,19,18,28,18.40
2013,06,19,18,29,18.40
2013,06,19,18,30,18.30
2013,06,19,18,31,18.30
2013,06,19,18,32,18.30
2013,06,19,18,33,18.20
2013,06,19,18,34,18.20
2013,06,19,18,35,18.20
2013,06,19,18,36,18.10
2013,06,19,18,37,18.10
2013,06,19,18,38,18.10
2013,06,19,18,39,18.00
2013,06,19,18,40,18.00
2013,06,19,18,41,18.00
2013,06,19,18,42,17.90
2013,06,19,18,43,17.90
2013,06,19,18,44,17.90
2013,06,19,18,45,17.80
2013,06,19,18,46,17.80
2013,06,19,18,47,17.80
2013,06,19,18,48,17.80
2013,06,19,18,49,17.80
2013,06,19,18,50,17.80
2013,06,19,18,51,17.80
2013,06,19,18,52,17.70
2013,06,19,18,53,17.70
2013,06,19,18,54,17.70
2013,06,19,18,55,17.80
2013,06,19,18,56,17.80
2013,06,19,18,57,17.80
2013,06,19,18,58,17.80
2013,06,19,18,59,17.80
2013,06,19,19,00,17.80
2013,06,19,19,01,17.80
2013,06,19,19,02,17.90
2013,06,19,19,03,17.90
2013,06,19,19,04,17.90
2013,06,19,19,05,18.00
2013,06,19,19,06,18.00
2013,06,19,19,07,18.00
2013,06,19,19,08,18.10
2013,06,19,19,09,18.10
2013,06,19,19,10,18.20
2013,06,19,19,11,18.20
2013,06,19,19,12,18.20
2013,06,19,19,13,18.20
2013,06,19,19,14,18.20
2013,06,19,19,15,18.30
2013,06,19,19,16,18.30
2013,06,19,19,17,18.30
2013,06,19,19,18,18.30
2013,06,19,19,19,18.30
2013,06,19,19,20,18.30
2013,06,19,19,21,18.30
2013,06,19,19,22,18.30
2013,06,19,19,23,18.30
2013,06,19,19,24,18.30
2013,06,19,19,25,18.30
2013,06,19,19,26,18.30
2013,06,19,19,27,18.30
2013,06,19,19,28,18.30
2013,06,19,19,29,18.30
2013,06,19,19,30,18.30
2013,06,19,19,31,18.30
2013,06,19,19,32,18.30
2013,06,19,19,33,18.30
2013,06,19,19,34,18.30
2013,06,19,19,35,18.30
2013,06,19,19,36,18.30
2013,06,19,19,37,18.30
2013,06,19,19,38,18.20
2013,06,19,19,39,18.20
2013,06,19,19,40,18.20
2013,06,19,19,41,18.20
2013,06,19,19,42,18.20
2013,06,19,19,43,18.20
2013,06,19,19,44,18.20
2013,06,19,19,45,18.20
2013,06,19,19,46,18.20
2013,06,19,19,47,18.20
2013,06,19,19,48,18.10
2013,06,19,19,49,18.10
2013,06,19,19,50,18.10
2013,06,19,19,51,18.10
2013,06,19,19,52,18.10
2013,06,19,19,53,18.10
2013,06,19,19,54,18.10
2013,06,19,19,55,18.10
2013,06,19,19,56,18.00
2013,06,19,19,57,18.00
2013,06,19,19,58,18.00
2013,06,19,19,59,17.90
2013,06,19,20,00,17.90
2013,06,19,20,01,17.90
2013,06,19,20,02,17.90
2013,06,19,20,03,17.90
2013,06,19,20,04,17.90
2013,06,19,20,05,17.80
2013,06,19,20,06,17.80
2013,06,19,20,07,17.80
2013,06,19,20,08,17.80
2013,06,19,20,09,17.80
2013,06,19,20,10,17.80
2013,06,19,20,11,17.80
2013,06,19,20,12,17.80
2013,06,19,20,13,17.80
2013,06,19,20,14,17.80
2013,06,19,20,15,17.80
2013,06,19,20,16,17.80
2013,06,19,20,17,17.80
2013,06,19,20,18,17.80
2013,06,19,20,19,17.70
2013,06,19,20,20,17.70
2013,06,19,20,21,17.70
2013,06,19,20,22,17.70
2013,06,19,20,23,17.70
2013,06,19,20,24,17.80
2013,06,19,20,25,17.70
2013,06,19,20,26,17.70
2013,06,19,20,27,17.70
2013,06,19,20,28,17.70
2013,06,19,20,29,17.70
2013,06,19,20,30,17.70
2013,06,19,20,31,17.70
2013,06,19,20,32,17.70
2013,06,19,20,33,17.70
2013,06,19,20,34,17.70
2013,06,19,20,35,17.70
2013,06,19,20,36,17.70
2013,06,19,20,37,17.70
2013,06,19,20,38,17.70
2013,06,19,20,39,17.70
2013,06,19,20,40,17.70
2013,06,19,20,41,17.60
2013,06,19,20,42,17.60
2013,06,19,20,43,17.60
2013,06,19,20,44,17.60
2013,06,19,20,45,17.60
2013,06,19,20,46,17.60
2013,06,19,20,47,17.50
2013,06,19,20,48,17.50
2013,06,19,20,49,17.50
2013,06,19,20,50,17.50
2013,06,19,20,51,17.50
2013,06,19,20,52,17.50
2013,06,19,20,53,17.40
2013,06,19,20,54,17.40
2013,06,19,20,55,17.40
2013,06,19,20,56,17.40
2013,06,19,20,57,17.40
2013,06,19,20,58,17.40
2013,06,19,20,59,17.40
2013,06,19,21,00,17.40
2013,06,19,21,01,17.40
2013,06,19,21,02,17.40
2013,06,19,21,03,17.30
2013,06,19,21,04,17.30
2013,06,19,21,05,17.30
2013,06,19,21,06,17.30
2013,06,19,21,07,17.30
2013,06,19,21,08,17.30
2013,06,19,21,09,17.30
2013,06,19,21,10,17.30
2013,06,19,21,11,17.30
2013,06,19,21,12,17.30
2013,06,19,21,13,17.30
2013,06,19,21,14,17.30
2013,06,19,21,15,17.30
2013,06,19,21,16,17.20
2013,06,19,21,17,17.20
2013,06,19,21,18,17.20
2013,06,19,21,19,17.20
2013,06,19,21,20,17.20
2013,06,19,21,21,17.20
2013,06,19,21,22,17.10
2013,06,19,21,23,17.10
2013,06,19,21,24,17.10
2013,06,19,21,25,17.10
2013,06,19,21,26,17.10
2013,06,19,21,27,17.10
2013,06,19,21,28,17.10
2013,06,19,21,29,17.00
2013,06,19,21,30,17.00
2013,06,19,21,31,17.00
2013,06,19,21,32,17.00
2013,06,19,21,33,17.00
2013,06,19,21,34,17.00
2013,06,19,21,35,17.00
2013,06,19,21,36,16.90
2013,06,19,21,37,16.90
2013,06,19,21,38,16.90
2013,06,19,21,39,16.90
2013,06,19,21,40,16.90
2013,06,19,21,41,16.90
2013,06,19,21,42,16.90
2013,06,19,21,43,16.90
2013,06,19,21,44,16.90
2013,06,19,21,45,16.90
2013,06,19,21,46,16.90
2013,06,19,21,47,16.80